カタリナ彗星

300P/Catalina (2005)

English version
Home page
Updated on April 13, 2014

---------------------------------------------------------------------

・ プロフィール

符号 300P/2005 JQ5
発見日 2005年5月6日
発見光度 16.7等
発見者 Catalina Sky Survey

・ 写真集

・ 軌道要素

Epoch 2005 July 9.0 TT = JDT 2453560.5
T 2005 July 28.03406 TT                                 MPC
q   0.8255909            (2000.0)            P               Q
n   0.22284713     Peri.  222.68363     +0.74614668     +0.65842075
a   2.6944162      Node    95.86141     -0.58095107     +0.71631180
e   0.6935919      Incl.    5.69581     -0.32520915     +0.23104010
P   4.42
From 558 observations 2005 May 6-2014 Apr. 10, mean residual 0".5.

・ 星図

・ 光度変化

        H = 17.5  G = 0.15                [   ,-73]  (              〜2005年 5月16日)
        m1 = 16.0 + 5 logΔ + 23.0 log r  [-73, 85]  (2005年 5月16日〜2005年10月21日)
        H = 17.5  G = 0.15                [ 85,   ]  (2005年10月21日〜              )

        ※ 緑色の曲線は、H = 17.5  G = 0.15 の光度曲線です。

---------------------------------------------------------------------

軌道要素はM.P.E.C. 2014-G70に掲載されたものです。
星図は StellaNavigator Ver.2.0 for Windows (アストロアーツ 編著 / アスキー出版局刊) で作成したものです。
光度グラフはComet for Windowsで作成したものです。

---------------------------------------------------------------------

Copyright(C) Seiichi Yoshida (comet@aerith.net). All rights reserved.